| time (UTC) | temp C | wind direction | speed KPH | gust KPH | rain 1hr cm | rain 24hr cm | rain mn cm | humidity % | barometer mb |
| 20260903004924 | 37 | 291 | 9.7 | 19.3 | 0.00 | 0.00 | 0.00 | 30 | 1008.4 |
| 20260903004024 | 38 | 298 | 8.0 | 19.3 | 0.00 | 0.00 | 0.00 | 29 | 1008.4 |
| 20260903003124 | 38 | 265 | 9.7 | 17.7 | 0.00 | 0.00 | 0.00 | 28 | 1008.5 |
| 20260903002224 | 38 | 276 | 11.3 | 19.3 | 0.00 | 0.00 | 0.00 | 28 | 1008.5 |
| 20260903000424 | 39 | 262 | 8.0 | 19.3 | 0.00 | 0.00 | 0.00 | 27 | 1008.6 |
| 20260902235524 | 39 | 281 | 9.7 | 19.3 | 0.00 | 0.00 | 0.00 | 27 | 1008.7 |
| 20260902234624 | 39 | 253 | 6.4 | 19.3 | 0.00 | 0.00 | 0.00 | 27 | 1008.7 |
| 20260902233723 | 39 | 277 | 4.8 | 16.1 | 0.00 | 0.00 | 0.00 | 27 | 1008.8 |
| 20260902232824 | 39 | 273 | 9.7 | 17.7 | 0.00 | 0.00 | 0.00 | 26 | 1008.9 |
| 20260902231924 | 39 | 268 | 6.4 | 19.3 | 0.00 | 0.00 | 0.00 | 26 | 1009.1 |
| 20260902231023 | 40 | 256 | 8.0 | 17.7 | 0.00 | 0.00 | 0.00 | 25 | 1009.2 |
| 20260902230123 | 39 | 270 | 6.4 | 22.5 | 0.00 | 0.00 | 0.00 | 26 | 1009.3 |
| 20260902223424 | 39 | 246 | 8.0 | 17.7 | 0.00 | 0.00 | 0.00 | 25 | 1009.6 |
| 20260902221623 | 40 | 285 | 3.2 | 20.9 | 0.00 | 0.00 | 0.00 | 25 | 1009.9 |
| 20260902220724 | 39 | 300 | 4.8 | 6.4 | 0.00 | 0.00 | 0.00 | 26 | 1009.8 |
| 20260902215824 | 39 | 260 | 8.0 | 11.3 | 0.00 | 0.00 | 0.00 | 26 | 1010.0 |
| 20260902214923 | 40 | 288 | 9.7 | 19.3 | 0.00 | 0.00 | 0.00 | 25 | 1010.2 |
| 20260902214023 | 40 | 283 | 11.3 | 20.9 | 0.00 | 0.00 | 0.00 | 24 | 1010.2 |
| 20260902213123 | 40 | 259 | 9.7 | 22.5 | 0.00 | 0.00 | 0.00 | 24 | 1010.2 |
| 20260902212224 | 40 | 184 | 8.0 | 16.1 | 0.00 | 0.00 | 0.00 | 25 | 1010.4 |
| 20260902210423 | 40 | 267 | 8.0 | 16.1 | 0.00 | 0.00 | 0.00 | 26 | 1010.6 |
| 20260902205523 | 40 | 191 | 9.7 | 17.7 | 0.00 | 0.00 | 0.00 | 26 | 1010.9 |
| 20260902204623 | 39 | 193 | 6.4 | 19.3 | 0.00 | 0.00 | 0.00 | 27 | 1011.0 |
| 20260902203723 | 39 | 257 | 6.4 | 14.5 | 0.00 | 0.00 | 0.00 | 27 | 1011.1 |
| 20260902202823 | 40 | 254 | 6.4 | 17.7 | 0.00 | 0.00 | 0.00 | 27 | 1011.3 |
| 20260902201924 | 38 | 257 | 6.4 | 16.1 | 0.00 | 0.00 | 0.00 | 28 | 1011.5 |
| 20260902201023 | 39 | 290 | 6.4 | 16.1 | 0.00 | 0.00 | 0.00 | 27 | 1011.6 |
| 20260902200123 | 38 | 218 | 8.0 | 16.1 | 0.00 | 0.00 | 0.00 | 28 | 1011.9 |
| 20260902195223 | 38 | 178 | 8.0 | 19.3 | 0.00 | 0.00 | 0.00 | 28 | 1012.0 |
| 20260902194323 | 39 | 215 | 4.8 | 16.1 | 0.00 | 0.00 | 0.00 | 27 | 1012.1 |
| 20260902193423 | 38 | 151 | 4.8 | 16.1 | 0.00 | 0.00 | 0.00 | 30 | 1012.2 |
| 20260902192523 | 38 | 169 | 6.4 | 16.1 | 0.00 | 0.00 | 0.00 | 30 | 1012.4 |
| 20260902191623 | 38 | 243 | 8.0 | 16.1 | 0.00 | 0.00 | 0.00 | 29 | 1012.5 |
| 20260902185823 | 37 | 159 | 8.0 | 17.7 | 0.00 | 0.00 | 0.00 | 32 | 1012.8 |
| 20260902184923 | 37 | 194 | 8.0 | 17.7 | 0.00 | 0.00 | 0.00 | 30 | 1013.0 |
| 20260902184023 | 37 | 175 | 6.4 | 22.5 | 0.00 | 0.00 | 0.00 | 30 | 1013.1 |
| 20260902183123 | 37 | 206 | 9.7 | 16.1 | 0.00 | 0.00 | 0.00 | 30 | 1013.2 |
| 20260902182223 | 37 | 176 | 9.7 | 27.4 | 0.00 | 0.00 | 0.00 | 31 | 1013.2 |
| 20260902181323 | 37 | 197 | 8.0 | 17.7 | 0.00 | 0.00 | 0.00 | 30 | 1013.4 |
| 20260902180423 | 36 | 184 | 8.0 | 19.3 | 0.00 | 0.00 | 0.00 | 32 | 1013.4 |
| 20260902174623 | 36 | 188 | 6.4 | 17.7 | 0.00 | 0.00 | 0.00 | 34 | 1013.5 |
| 20260902173723 | 36 | 173 | 6.4 | 20.9 | 0.00 | 0.00 | 0.00 | 31 | 1013.6 |
| 20260902172823 | 36 | 186 | 4.8 | 24.1 | 0.00 | 0.00 | 0.00 | 31 | 1013.6 |
| 20260902171923 | 35 | 189 | 6.4 | 12.9 | 0.00 | 0.00 | 0.00 | 37 | 1013.6 |
| 20260902171023 | 35 | 205 | 4.8 | 14.5 | 0.00 | 0.00 | 0.00 | 38 | 1013.6 |
| 20260902170123 | 35 | 182 | 3.2 | 12.9 | 0.00 | 0.00 | 0.00 | 39 | 1013.5 |
| 20260902165223 | 35 | 182 | 4.8 | 11.3 | 0.00 | 0.00 | 0.00 | 41 | 1013.6 |
| 20260902163423 | 33 | 194 | 4.8 | 11.3 | 0.00 | 0.00 | 0.00 | 46 | 1013.7 |
| 20260902162523 | 33 | 174 | 3.2 | 14.5 | 0.00 | 0.00 | 0.00 | 45 | 1013.7 |
| 20260902160723 | 33 | 173 | 4.8 | 12.9 | 0.00 | 0.00 | 0.00 | 49 | 1013.7 |
| 20260902155823 | 32 | 155 | 6.4 | 14.5 | 0.00 | 0.00 | 0.00 | 49 | 1013.6 |
| 20260902154923 | 32 | 154 | 4.8 | 14.5 | 0.00 | 0.00 | 0.00 | 51 | 1013.4 |
| 20260902154023 | 32 | 160 | 4.8 | 9.7 | 0.00 | 0.00 | 0.00 | 52 | 1013.5 |
| 20260902153123 | 32 | 161 | 4.8 | 12.9 | 0.00 | 0.00 | 0.00 | 53 | 1013.5 |
| 20260902152223 | 31 | 175 | 3.2 | 9.7 | 0.00 | 0.00 | 0.00 | 55 | 1013.4 |
| 20260902151323 | 31 | 122 | 4.8 | 12.9 | 0.00 | 0.00 | 0.00 | 55 | 1013.4 |
| 20260902150423 | 31 | 128 | 3.2 | 12.9 | 0.00 | 0.00 | 0.00 | 55 | 1013.3 |
| 20260902145523 | 30 | 127 | 3.2 | 8.0 | 0.00 | 0.00 | 0.00 | 56 | 1013.3 |
| 20260902144623 | 30 | 157 | 1.6 | 11.3 | 0.00 | 0.00 | 0.00 | 57 | 1013.3 |
| 20260902143723 | 30 | 154 | 3.2 | 4.8 | 0.00 | 0.00 | 0.00 | 58 | 1013.3 |
| 20260902142823 | 30 | 149 | 1.6 | 9.7 | 0.00 | 0.00 | 0.00 | 59 | 1013.3 |
| 20260902141923 | 30 | 115 | 1.6 | 9.7 | 0.00 | 0.00 | 0.00 | 59 | 1013.3 |
| 20260902140123 | 29 | 110 | 0.0 | 4.8 | 0.00 | 0.00 | 0.00 | 61 | 1013.0 |
| 20260902135223 | 28 | 111 | 0.0 | 4.8 | 0.00 | 0.00 | 0.00 | 62 | 1012.8 |
| 20260902134323 | 28 | 111 | 0.0 | 3.2 | 0.00 | 0.00 | 0.00 | 62 | 1012.7 |
| 20260902133423 | 28 | 0 | 0.0 | 0.0 | 0.00 | 0.00 | 0.00 | 63 | 1012.6 |
| 20260902132523 | 28 | 108 | 1.6 | 4.8 | 0.00 | 0.00 | 0.00 | 63 | 1012.5 |
| 20260902131623 | 28 | 109 | 1.6 | 4.8 | 0.00 | 0.00 | 0.00 | 63 | 1012.4 |
| 20260902130723 | 28 | 110 | 1.6 | 4.8 | 0.00 | 0.00 | 0.00 | 63 | 1012.4 |
| 20260902124923 | 28 | 110 | 1.6 | 6.4 | 0.00 | 0.00 | 0.00 | 62 | 1012.2 |
| 20260902124022 | 28 | 104 | 3.2 | 6.4 | 0.00 | 0.00 | 0.00 | 61 | 1012.1 |
| 20260902123122 | 28 | 96 | 1.6 | 4.8 | 0.00 | 0.00 | 0.00 | 61 | 1011.9 |
| 20260902122223 | 28 | 95 | 1.6 | 4.8 | 0.00 | 0.00 | 0.00 | 61 | 1011.9 |
| 20260902121322 | 28 | 94 | 3.2 | 6.4 | 0.00 | 0.00 | 0.00 | 60 | 1011.9 |
| 20260902120422 | 28 | 93 | 3.2 | 6.4 | 0.00 | 0.00 | 0.00 | 60 | 1011.8 |
| 20260902114623 | 29 | 113 | 1.6 | 6.4 | 0.00 | 0.00 | 0.00 | 59 | 1011.8 |
| 20260902113722 | 29 | 108 | 1.6 | 4.8 | 0.00 | 0.00 | 0.00 | 59 | 1011.8 |
| 20260902111923 | 29 | 102 | 3.2 | 6.4 | 0.00 | 0.00 | 0.00 | 58 | 1011.7 |
| 20260902110122 | 29 | 98 | 1.6 | 6.4 | 0.00 | 0.00 | 0.00 | 58 | 1011.6 |
| 20260902104322 | 30 | 108 | 1.6 | 4.8 | 0.00 | 0.00 | 0.00 | 58 | 1011.7 |
| 20260902103422 | 30 | 111 | 1.6 | 4.8 | 0.00 | 0.00 | 0.00 | 59 | 1011.6 |
| 20260902102522 | 30 | 112 | 0.0 | 4.8 | 0.00 | 0.00 | 0.00 | 58 | 1011.7 |
| 20260902101622 | 30 | 112 | 0.0 | 1.6 | 0.00 | 0.00 | 0.00 | 58 | 1011.8 |
| 20260902100722 | 30 | 113 | 1.6 | 4.8 | 0.00 | 0.00 | 0.00 | 57 | 1011.7 |
| 20260902095822 | 30 | 118 | 0.0 | 4.8 | 0.00 | 0.00 | 0.00 | 58 | 1011.6 |
| 20260902094922 | 30 | 0 | 0.0 | 0.0 | 0.00 | 0.00 | 0.00 | 57 | 1011.6 |
| 20260902094022 | 30 | 0 | 0.0 | 0.0 | 0.00 | 0.00 | 0.00 | 57 | 1011.6 |
| 20260902093122 | 30 | 0 | 0.0 | 0.0 | 0.00 | 0.00 | 0.00 | 57 | 1011.6 |
| 20260902092222 | 30 | 0 | 0.0 | 0.0 | 0.00 | 0.00 | 0.00 | 56 | 1011.5 |
| 20260902091322 | 30 | 175 | 0.0 | 1.6 | 0.00 | 0.00 | 0.00 | 56 | 1011.7 |
| 20260902090422 | 30 | 176 | 0.0 | 1.6 | 0.00 | 0.00 | 0.00 | 54 | 1011.7 |
| 20260902085522 | 30 | 0 | 0.0 | 0.0 | 0.00 | 0.00 | 0.00 | 53 | 1011.6 |
| 20260902084622 | 31 | 176 | 0.0 | 3.2 | 0.00 | 0.00 | 0.00 | 52 | 1011.8 |
| 20260902083722 | 31 | 176 | 0.0 | 1.6 | 0.00 | 0.00 | 0.00 | 50 | 1011.7 |
| 20260902082822 | 31 | 176 | 0.0 | 1.6 | 0.00 | 0.00 | 0.00 | 50 | 1011.6 |
| 20260902081922 | 31 | 0 | 0.0 | 0.0 | 0.00 | 0.00 | 0.00 | 49 | 1011.7 |
| 20260902081022 | 31 | 176 | 0.0 | 1.6 | 0.00 | 0.00 | 0.00 | 48 | 1011.7 |
| 20260902075222 | 31 | 0 | 0.0 | 0.0 | 0.00 | 0.00 | 0.00 | 48 | 1011.6 |
| 20260902074322 | 31 | 292 | 1.6 | 3.2 | 0.00 | 0.00 | 0.00 | 48 | 1011.6 |
| 20260902072522 | 32 | 267 | 1.6 | 6.4 | 0.00 | 0.00 | 0.00 | 47 | 1011.4 |
| 20260902071622 | 32 | 177 | 1.6 | 6.4 | 0.00 | 0.00 | 0.00 | 46 | 1011.4 |
| 20260902070722 | 32 | 148 | 1.6 | 9.7 | 0.00 | 0.00 | 0.00 | 45 | 1011.2 |
| 20260902065822 | 32 | 142 | 1.6 | 6.4 | 0.00 | 0.00 | 0.00 | 45 | 1011.2 |
| 20260902064922 | 32 | 162 | 1.6 | 8.0 | 0.00 | 0.00 | 0.00 | 45 | 1011.1 |
| 20260902064022 | 32 | 164 | 0.0 | 6.4 | 0.00 | 0.00 | 0.00 | 45 | 1011.1 |
| 20260902062222 | 32 | 166 | 1.6 | 8.0 | 0.00 | 0.00 | 0.00 | 45 | 1011.1 |
| 20260902061322 | 32 | 166 | 1.6 | 6.4 | 0.00 | 0.00 | 0.00 | 45 | 1011.1 |
| 20260902055522 | 33 | 168 | 1.6 | 8.0 | 0.00 | 0.00 | 0.00 | 44 | 1011.2 |
| 20260902052822 | 33 | 174 | 3.2 | 9.7 | 0.00 | 0.00 | 0.00 | 42 | 1011.4 |
| 20260902051922 | 33 | 188 | 1.6 | 9.7 | 0.00 | 0.00 | 0.00 | 41 | 1011.4 |
| 20260902050122 | 32 | 0 | 0.0 | 0.0 | 0.00 | 0.00 | 0.00 | 41 | 1011.1 |
| 20260902045222 | 33 | 0 | 0.0 | 0.0 | 0.00 | 0.00 | 0.00 | 41 | 1011.1 |
| 20260902044322 | 32 | 0 | 0.0 | 0.0 | 0.00 | 0.00 | 0.00 | 42 | 1011.0 |
| 20260902043422 | 32 | 0 | 0.0 | 0.0 | 0.00 | 0.00 | 0.00 | 41 | 1010.9 |
| 20260902042522 | 32 | 0 | 0.0 | 0.0 | 0.00 | 0.00 | 0.00 | 41 | 1010.8 |
| 20260902041622 | 33 | 0 | 0.0 | 0.0 | 0.00 | 0.00 | 0.00 | 40 | 1010.8 |
| 20260902040722 | 33 | 0 | 0.0 | 0.0 | 0.00 | 0.00 | 0.00 | 40 | 1010.8 |
| 20260902035822 | 33 | 0 | 0.0 | 0.0 | 0.00 | 0.00 | 0.00 | 40 | 1010.7 |
| 20260902034922 | 33 | 0 | 0.0 | 0.0 | 0.00 | 0.00 | 0.00 | 39 | 1010.6 |
| 20260902034022 | 33 | 0 | 0.0 | 0.0 | 0.00 | 0.00 | 0.00 | 39 | 1010.4 |
| 20260902033122 | 34 | 0 | 0.0 | 0.0 | 0.00 | 0.00 | 0.00 | 38 | 1010.3 |
| 20260902032222 | 33 | 0 | 0.0 | 0.0 | 0.00 | 0.00 | 0.00 | 38 | 1010.1 |
| 20260902031322 | 34 | 0 | 0.0 | 0.0 | 0.00 | 0.00 | 0.00 | 38 | 1009.9 |
| 20260902030422 | 34 | 0 | 0.0 | 0.0 | 0.00 | 0.00 | 0.00 | 38 | 1009.7 |
| 20260902025522 | 34 | 0 | 0.0 | 0.0 | 0.00 | 0.00 | 0.00 | 37 | 1009.6 |
| 20260902024622 | 34 | 178 | 0.0 | 3.2 | 0.00 | 0.00 | 0.00 | 38 | 1009.5 |
| 20260902021922 | 35 | 178 | 1.6 | 3.2 | 0.00 | 0.00 | 0.00 | 37 | 1009.4 |
| 20260902021022 | 35 | 178 | 0.0 | 6.4 | 0.00 | 0.00 | 0.00 | 36 | 1009.4 |
| 20260902020122 | 35 | 178 | 0.0 | 3.2 | 0.00 | 0.00 | 0.00 | 36 | 1009.3 |
| 20260902015222 | 35 | 178 | 1.6 | 6.4 | 0.00 | 0.00 | 0.00 | 36 | 1009.1 |
| 20260902014322 | 35 | 178 | 0.0 | 6.4 | 0.00 | 0.00 | 0.00 | 36 | 1009.1 |
| 20260902013422 | 35 | 178 | 0.0 | 3.2 | 0.00 | 0.00 | 0.00 | 36 | 1009.1 |
| 20260902012522 | 35 | 178 | 3.2 | 6.4 | 0.00 | 0.00 | 0.00 | 35 | 1009.1 |
| 20260902010722 | 36 | 157 | 3.2 | 8.0 | 0.00 | 0.00 | 0.00 | 34 | 1009.3 |
| 20260902005822 | 36 | 31 | 1.6 | 9.7 | 0.00 | 0.00 | 0.00 | 35 | 1009.5 |